Regional Weather Roundup
Issued by NWS

Home | Current Version | Previous Version | Graphics & Text | Print | Product List | Glossary On
Versions: 1 2 3 4 5 6 7 8 9 10 11 12 13 14 15 16 17 18 19 20 21 22 23 24 25 26 27 28 29 30 31 32 33 34 35 36 37 38 39 40 41 42 43 44 45 46 47 48 49 50
000
ASUS44 KMEG 221310
RWRTN
TENNESSEE HOURLY STATE WEATHER ROUNDUP
NATIONAL WEATHER SERVICE MEMPHIS TN
800 AM CDT FRI MAY 22 2015

TNZ002-004-019-021-049-052-054-088>092-221400-
WEST TENNESSEE

CITY           SKY/WX    TMP DP  RH WIND       PRES   REMARKS
MEMPHIS INTL   PTSUNNY   57  47  69 E7        30.30R
NWS MEMPHIS      N/A     54 N/A N/A MISG        N/A
JACKSON        SUNNY     54  48  80 NE3       30.30R
DYERSBURG      SUNNY     54  39  58 NE3       30.31R
PARIS          SUNNY     52  45  76 CALM      30.30R
LEXINGTON      SUNNY     50  48  93 VRB6      30.28R
$$

TNZ008-025-027-028-033-062-065-066-221400-
NORTH MIDDLE TENNESSEE

CITY           SKY/WX    TMP DP  RH WIND       PRES   REMARKS
NASHVILLE      MOSUNNY   55  47  74 N5        30.30R
CLARKSVILLE    SUNNY     54  48  80 CALM      30.30R
SMYRNA         SUNNY     53  48  83 NE3       30.31R
COOKEVILLE     SUNNY     52  48  87 E3        30.27R
CROSSVILLE     SUNNY     49  44  83 NE10      30.28R
$$

TNZ061-075-076-078-094-096-097-221400-
SOUTH MIDDLE TENNESSEE

CITY           SKY/WX    TMP DP  RH WIND       PRES   REMARKS
FAYETTEVILLE   SUNNY    N/A N/A N/A MISG      30.28R
TULLAHOMA      SUNNY     52  45  76 NE8       30.29R
WINCHESTER     MOSUNNY   52  46  82 NE5       30.28R
MCMINNVILLE    SUNNY     52  52 100 NE9       30.29R
COLUMBIA       SUNNY     50  46  87 CALM      30.28R
SHELBYVILLE    SUNNY     52  48  87 CALM      30.30R
$$

TNZ017-018-042-046-047-221400-
NORTHEAST TENNESSEE

CITY           SKY/WX    TMP DP  RH WIND       PRES   REMARKS
TRI CITIES     MOSUNNY   52  44  74 CALM      30.27R
ELIZABETHTON   SUNNY     52  43  71 CALM      30.27R
$$

TNZ012-013-036-069-073-074-221400-
CENTRAL EAST TENNESSEE

CITY           SKY/WX    TMP DP  RH WIND       PRES   REMARKS
KNOXVILLE      MOSUNNY   56  45  66 NE9       30.26R
OAK RIDGE      SUNNY     57  44  62 CALM      30.28R
GATLINBURG     SUNNY     54  43  66 E6        30.27R
MORRISTOWN     SUNNY     55  45  67 E7        30.29R
$$

TNZ083-085-099-221400-
SOUTHEAST TENNESSEE

CITY           SKY/WX    TMP DP  RH WIND       PRES   REMARKS
CHATTANOOGA    MOSUNNY   58  43  57 NE16G22   30.25R
$$

SKY/WX REPORTED AS FAIR MEANS FEW OR NO CLOUDS BELOW
12 THOUSAND FEET.



USA.gov is the U.S. government's official web portal to all federal, state and local government web resources and services.